Location: Unspecified
(0.0000°N, 0.0000°E)
Time: 03:28:06
(UTC+00:00)

CZ-3B DEB - Pass Details

Date: 15 February 2026
Orbit: 716 x 41326 km, 26.5° (Epoch: 4 March)

Event Time Altitude Azimuth Distance (km) Brightness Sun altitude
Rises 19:52:58 0° 337° (NNW) 3,514 ? -24.1°
Reaches altitude 10° 19:56:25 10° 8° (N) 3,322 ? -24.9°
Enters shadow 19:57:28 12° 17° (NNE) 3,439 ? -25.2°
Exits shadow 20:38:17 - 94° (E) 16,285 ? -35.1°
Sets 20:39:02 0° 94° (E) 16,483 ? -35.3°
